Dewpoint
65 65 65 65 64 64 64 64 63 63 63 63 63 63 63 63 64 65 65 65 65 65 65 64 64 64 63 62 62 61 61 60 59 58 57 57 56 55 55 54 54 54
64 64 65 64 64 64 64 64 63 63 63 63 63 63 63 63 64 65 65 65 65 65 64 64 64 63 63 62 61 61 60 59 57 58 57 56 55 55 54 54 54 54
64 64 64 64 64 64 64 64 63 63 63 63 63 63 63 63 63 64 65 65 65 65 64 64 64 63 63 62 61 61 59 58 57 57 56 55 55 54 54 54 53 53
64 64 64 64 64 64 64 64 63 63 63 63 63 63 63 63 63 63 64 65 65 64 64 64 64 63 62 61 61 61 59 58 57 56 56 56 55 54 54 54 53 53
64 64 64 64 64 64 64 64 63 63 63 63 63 63 63 63 62 63 63 64 64 63 63 62 62 63 62 60 59 59 58 58 56 56 55 55 54 54 53 53 52 52
64 64 64 64 64 64 64 64 63 63 63 62 63 63 62 61 62 62 63 63 64 64 62 62 62 61 61 60 60 59 58 56 56 56 55 54 54 54 53 53 52 52
63 63 63 63 63 64 64 64 63 63 63 63 63 62 60 61 62 62 63 64 64 64 62 61 61 61 61 59 59 58 58 57 56 56 55 55 54 54 53 53 53 52
63 63 63 63 63 63 63 63 63 63 63 62 62 62 61 62 62 62 64 64 64 63 62 61 61 61 60 59 59 58 57 57 56 55 55 54 54 53 53 53 53 52
63 63 63 63 63 63 63 63 63 63 62 62 62 61 61 62 62 63 64 64 63 63 62 61 61 60 60 59 58 57 56 56 56 56 55 54 54 53 53 52 52 53
63 63 63 62 62 63 63 62 62 62 62 62 61 61 61 62 62 63 63 63 63 62 62 61 60 60 60 59 58 57 57 56 56 56 56 55 55 53 52 52 52 51
62 62 62 62 62 62 62 61 62 62 61 62 61 61 61 62 63 63 63 63 63 62 61 60 60 60 60 59 59 58 57 56 55 56 56 56 55 53 53 51 51 51
62 62 62 62 62 62 61 62 62 61 61 61 61 61 61 63 63 63 63 63 63 62 61 59 60 60 60 59 58 58 56 56 56 56 55 55 54 53 52 51 50 50
62 62 62 62 62 62 62 62 62 62 62 61 61 61 62 62 62 62 62 62 62 62 61 60 60 60 59 58 58 57 56 56 56 55 55 55 54 52 51 50 50 49
62 62 62 62 63 63 62 62 62 62 62 62 62 62 61 62 62 62 62 62 61 61 59 59 59 58 58 58 57 57 56 55 55 54 53 52 51 50 49 49 49 49
62 62 62 62 62 63 62 62 62 62 62 62 62 61 61 61 61 62 61 61 60 60 59 59 59 58 58 57 57 56 55 54 53 53 51 50 48 47 46 47 47 47
63 63 62 62 62 62 62 62 62 62 62 62 61 61 61 61 61 60 60 60 59 58 58 58 58 58 57 53 54 56 54 53 52 51 50 49 48 47 46 48 48 49
64 63 63 63 62 62 62 62 62 62 62 61 61 61 61 60 61 60 60 60 59 58 58 58 57 56 49 47 48 50 53 52 51 50 49 49 48 48 48 49 48 48
64 63 63 62 62 62 62 62 62 62 62 61 61 61 61 61 61 60 60 59 59 58 57 57 56 51 45 46 46 46 50 52 50 49 48 48 47 47 46 46 46 45
63 63 62 62 62 63 62 62 62 61 61 61 60 61 61 60 60 60 59 59 58 58 57 56 55 46 44 45 44 44 45 48 49 48 47 44 45 45 45 45 44 45
63 63 63 62 62 62 62 62 61 61 61 61 61 60 60 60 59 59 59 58 58 57 56 56 55 46 44 44 43 42 43 45 47 46 44 44 44 44 44 44 44 45
63 62 62 62 62 62 62 61 61 60 60 60 60 60 60 59 59 58 58 57 57 57 56 56 53 43 43 42 42 42 42 44 46 44 43 43 44 44 44 44 44 46
62 62 62 62 62 62 61 61 61 60 60 60 60 60 60 59 59 58 58 57 57 57 56 56 52 42 42 41 41 41 42 46 44 43 42 43 43 44 43 44 45 46
62 62 61 62 61 61 61 60 60 60 60 60 59 59 59 58 58 57 57 57 57 56 56 55 52 43 41 41 41 40 43 45 44 42 42 43 43 44 44 44 45 45
62 62 61 61 61 61 60 60 60 60 59 60 59 58 58 58 58 57 57 57 56 56 56 55 52 46 41 41 41 41 46 47 43 43 43 43 44 45 44 45 45 47
62 61 61 61 61 60 60 59 59 59 59 60 59 59 58 58 57 57 56 56 56 56 55 55 52 46 41 41 41 42 46 47 46 43 43 44 44 44 45 45 47 48
62 61 61 60 60 59 59 59 59 59 59 59 59 59 58 57 56 56 55 55 55 55 55 54 51 48 44 41 41 42 44 47 45 44 44 44 43 43 44 45 47 48